Location: ???? ??
(36.0534°N, 43.5630°E)
Time: 09:15:31
(UTC+00:00)

USA 186 - Pass Details

Date: 18 September 2019
Orbit: 261 x 450 km, 96.9° (Epoch: 07 October)

Event Time Altitude Azimuth Distance (km) Brightness Sun altitude
Exits shadow 16:12:42 24° 90° (E) 957 3.0 -13.5°
Maximum altitude 16:13:16 26° 73° (ENE) 926 3.0 -13.6°
Drops below altitude 10° 16:16:09 10° 15° (NNE) 1,589 4.6 -14.2°
Sets 16:18:26 0° 3° (N) 2,471 5.8 -14.6°
